Location: Cluj-Napoca
(46.7712°N, 23.6236°E)
Time: 07:47:23
(UTC+02:00)

ISS - Pass Details

Date: 24 January 2021
Orbit: 417 x 422 km, 51.6° (Epoch: 08 March)

Event Time Altitude Azimuth Distance (km) Brightness Sun altitude
Rises 18:09:23 0° 246° (WSW) 2,364 2.4 -9.1°
Reaches altitude 10° 18:11:28 10° 247° (WSW) 1,503 0.7 -9.4°
Maximum altitude 18:14:51 81° 336° (NNW) 432 -3.7 -10.0°
Enters shadow 18:17:31 15° 62° (ENE) 1,220 -2.0 -10.4°
